Regional Weather Roundup
Issued by NWS

Home | Current Version | Previous Version | Graphics & Text | Print | Product List | Glossary On
Versions: 1 2 3 4 5 6 7 8 9 10 11 12 13 14 15 16 17 18 19 20 21 22 23 24 25 26 27 28 29 30 31 32 33 34 35 36 37 38 39 40 41 42 43 44 45 46 47 48 49 50
000
ASUS43 KDMX 161907
RWRIA

WEATHER ROUNDUP FOR IOWA
NATIONAL WEATHER SERVICE DES MOINES IA
200 PM CDT TUE SEP 16 2014

NOTE: "FAIR" INDICATES FEW OR NO CLOUDS BELOW 12,000 FEET WITH NO
SIGNIFICANT WEATHER AND/OR OBSTRUCTIONS TO VISIBILITY.

* - THESE STATIONS ARE NOT NWS STATIONS...THUS NOT UNDER NWS
QUALITY CONTROL.  THEY ALSO DO NOT REPORT WEATHER SUCH
AS PRECIPITATION OR FOG.

IAZ001>003-012>014-020>022-031>034-043>046-162000-
   NORTHWEST IOWA

CITY           SKY/WX    TMP DP  RH WIND       PRES   REMARKS
CARROLL *      SUNNY     64  45  48 S8G14     30.14F
CHEROKEE *     SUNNY     64  46  52 S10       30.12F
DENISON *      SUNNY     64  46  52 SW8G14    30.11F
LE MARS *      SUNNY     66  48  52 S14G20    30.11F
ORANGE CITY *  SUNNY     66  46  48 S12       30.10F
SHELDON *      SUNNY     64  45  48 S13       30.10F
SIOUX CITY     SUNNY     67  48  50 VRB6      30.11F
SPENCER        SUNNY     65  45  48 S12       30.12F
STORM LAKE *   SUNNY     64  54  68 VRB7G14   30.12F
$$

IAZ055>058-069>071-079>083-090>094-162000-
   SOUTHWEST IOWA

CITY           SKY/WX    TMP DP  RH WIND       PRES   REMARKS
ATLANTIC *     SUNNY     64  46  52 VRB7G14   30.14F
AUDUBON *      SUNNY     64  43  45 S6        30.15F
CLARINDA *     SUNNY     66  48  52 CALM      30.16F
COUNCIL BLFS * SUNNY     64  50  59 VRB5G15   30.12F
CRESTON *      SUNNY     63  48  59 VRB7      30.16F
HARLAN  *      SUNNY     64  48  55 SW10G17   30.17F
LAMONI         SUNNY     63  46  54 CALM      30.17F
SHENANDOAH *   SUNNY     66  46  48 S7G13     30.15F
$$

IAZ047>049-059>061-072>074-084-162000-
   CENTRAL IOWA

CITY           SKY/WX    TMP DP  RH WIND       PRES   REMARKS
AMES           SUNNY     64  46  52 SW8       30.16F
ANKENY *       SUNNY     63  46  55 VRB5      30.16F
CHARITON *       N/A     64  46  52 VRB5      30.17F
DES MOINES     MOSUNNY   65  45  48 SW5       30.16F
GRINNELL*      SUNNY     63  43  48 CALM      30.17F
KNOXVILLE *    SUNNY     63  46  55 VRB5G12   30.16F
MARSHALLTOWN   SUNNY     64  44  48 S7        30.16F
PELLA *        SUNNY     66  46  48 SW8       30.18F
PERRY *          N/A     66  45  45 SW6       30.15F
$$

IAZ004>006-015-016-023>025-035-036-162000-
   NORTH CENTRAL IOWA

CITY           SKY/WX    TMP DP  RH WIND       PRES   REMARKS
ALGONA *       SUNNY     64  45  48 SW10      30.13F
CLARION *        N/A     64  43  45 W8G14     30.14F
ESTHERVILLE    SUNNY     64  44  48 S12G18    30.12F
FORT DODGE *   SUNNY     64  46  52 SW6       30.15F
MASON CITY     SUNNY     64  44  48 SW8       30.15F
FOREST CITY *  SUNNY     64  45  48 S9        30.13F
IOWA FALLS *     N/A     66  43  42 S9        30.16F
$$

IAZ007>011-017>019-026>030-037>042-050>054-066-162000-
   NORTHEAST IOWA

CITY           SKY/WX    TMP DP  RH WIND       PRES   REMARKS
CEDAR RAPIDS   SUNNY     63  46  54 S7        30.16F
CHARLES CITY * SUNNY     64  41  42 VRB6G14   30.15F
CLINTON *      SUNNY     63  41  45 NW3       30.19F
DECORAH *      SUNNY     63  43  48 VRB6G13   30.14F
DUBUQUE        SUNNY     62  44  51 VRB7      30.16F
MONTICELLO *   SUNNY     64  45  48 VRB6      30.16F
OELWEIN *      SUNNY     63  43  48 SW9       30.16F
WATERLOO       SUNNY     65  42  43 VRB7      30.15F
$$

IAZ064-065-067-068-078-162000-
   EAST CENTRAL IOWA

CITY           SKY/WX    TMP DP  RH WIND       PRES   REMARKS
DAVENPORT      SUNNY     63  41  44 CALM      30.17F
IOWA CITY      SUNNY     63  45  51 MISG      30.18F
MT. PLEASANT * MOSUNNY   66  43  42 W7        30.17F
MUSCATINE *    SUNNY     66  43  42 VRB3      30.17F
QUAD CITIES    SUNNY     66  43  43 W6        30.17F
$$

IAZ062-063-075>077-085>089-095>099-162000-
   SOUTHEAST IOWA

CITY           SKY/WX    TMP DP  RH WIND       PRES   REMARKS
BURLINGTON     SUNNY     65  45  48 VRB3      30.17F
FAIRFIELD *    SUNNY     64  45  48 CALM      30.17F
FORT MADISON * SUNNY     66  46  48 SE3       30.18F
KEOKUK *       SUNNY     64  46  52 VRB6      30.17F
OSKALOOSA *      N/A     64  48  55 SW3       30.17F
CENTERVILLE *  MOSUNNY   64  48  55 SE6       30.19F
OTTUMWA        SUNNY     63  43  48 VRB3      30.17F
WASHINGTON *   SUNNY     64  45  48 SE6       30.17F
$$

ABBREVIATIONS USED IN REMARKS
   TC - TEMPERATURES IN CELSIUS
  WCI - WIND CHILL INDEX
   HX - HEAT INDEX
  VSB - VISIBILITY
$$




USA.gov is the U.S. government's official web portal to all federal, state and local government web resources and services.